Time,TemperatureF,DewpointF,PressureIn,WindDirection,WindDirectionDegrees,WindSpeedMPH,WindSpeedGustMPH,Humidity,HourlyPrecipIn,Conditions,Clouds,dailyrainin,SoftwareType,DateUTC
2013-02-11 00:02:00,43.0,42.0,29.61,WSW,249,4.0,10.0,97,64.84,,,-99.99,,2013-02-11 06:02:00,
2013-02-11 00:11:00,42.0,41.0,29.61,West,264,4.0,11.0,95,64.84,,,-99.99,,2013-02-11 06:11:00,
2013-02-11 00:21:00,42.0,41.0,29.61,West,264,4.0,11.0,95,64.84,,,-99.99,,2013-02-11 06:21:00,
2013-02-11 00:32:00,42.0,38.0,29.62,SW,231,6.0,17.0,86,64.84,,,-99.99,,2013-02-11 06:32:00,
2013-02-11 00:42:00,42.0,36.0,29.62,WNW,290,8.0,12.0,78,64.84,,,-99.99,,2013-02-11 06:42:00,
2013-02-11 00:52:00,42.0,36.0,29.62,WNW,290,8.0,12.0,78,64.84,,,-99.99,,2013-02-11 06:52:00,
2013-02-11 01:01:00,41.0,36.0,29.62,WSW,248,3.0,10.0,83,64.84,,,-99.99,,2013-02-11 07:01:00,
2013-02-11 01:11:00,40.0,35.0,29.62,West,267,5.0,11.0,83,64.84,,,-99.99,,2013-02-11 07:11:00,
2013-02-11 01:21:00,40.0,35.0,29.62,West,267,5.0,11.0,83,64.84,,,-99.99,,2013-02-11 07:21:00,
2013-02-11 01:32:00,40.0,33.0,29.62,WNW,298,7.0,16.0,76,64.84,,,-99.99,,2013-02-11 07:32:00,
2013-02-11 01:41:00,39.0,32.0,29.64,WNW,297,7.0,16.0,75,64.84,,,-99.99,,2013-02-11 07:41:00,
2013-02-11 01:52:00,39.0,32.0,29.64,WNW,297,7.0,16.0,75,64.84,,,-99.99,,2013-02-11 07:52:00,
2013-02-11 02:01:00,38.0,31.0,29.65,WNW,285,9.0,20.0,77,64.84,,,-99.99,,2013-02-11 08:01:00,
2013-02-11 02:11:00,38.0,32.0,29.66,WNW,291,8.0,20.0,80,64.84,,,-99.99,,2013-02-11 08:11:00,
2013-02-11 02:21:00,38.0,32.0,29.66,WNW,291,8.0,20.0,80,64.84,,,-99.99,,2013-02-11 08:21:00,
2013-02-11 02:31:00,36.0,31.0,29.66,WNW,285,5.0,16.0,83,64.84,,,-99.99,,2013-02-11 08:31:00,
2013-02-11 02:42:00,36.0,31.0,29.67,WNW,284,7.0,15.0,83,64.84,,,-99.99,,2013-02-11 08:42:00,
2013-02-11 02:52:00,36.0,31.0,29.67,WNW,284,7.0,15.0,83,64.84,,,-99.99,,2013-02-11 08:52:00,
2013-02-11 03:01:00,35.0,29.0,29.67,West,273,9.0,20.0,78,64.84,,,-99.99,,2013-02-11 09:01:00,
2013-02-11 03:12:00,35.0,29.0,29.68,West,271,10.0,23.0,77,64.84,,,-99.99,,2013-02-11 09:12:00,
2013-02-11 03:21:00,35.0,29.0,29.68,West,271,10.0,23.0,77,64.84,,,-99.99,,2013-02-11 09:21:00,
2013-02-11 03:31:00,35.0,28.0,29.68,West,277,11.0,20.0,75,64.84,,,-99.99,,2013-02-11 09:31:00,
2013-02-11 03:41:00,35.0,28.0,29.68,West,277,11.0,20.0,75,64.84,,,-99.99,,2013-02-11 09:41:00,
2013-02-11 03:52:00,35.0,29.0,29.68,WNW,291,7.0,21.0,80,64.84,,,-99.99,,2013-02-11 09:52:00,
2013-02-11 04:01:00,35.0,29.0,29.68,WNW,294,10.0,20.0,78,64.84,,,-99.99,,2013-02-11 10:01:00,
2013-02-11 04:11:00,35.0,29.0,29.69,WNW,291,10.0,24.0,78,64.84,,,-99.99,,2013-02-11 10:11:00,
2013-02-11 04:21:00,35.0,29.0,29.69,WNW,291,10.0,24.0,78,64.84,,,-99.99,,2013-02-11 10:21:00,
2013-02-11 04:31:00,34.0,28.0,29.70,WNW,288,11.0,25.0,79,64.84,,,-99.99,,2013-02-11 10:31:00,
2013-02-11 04:41:00,33.0,27.0,29.72,WNW,297,9.0,23.0,78,64.84,,,-99.99,,2013-02-11 10:41:00,
2013-02-11 04:52:00,33.0,27.0,29.72,WNW,297,9.0,23.0,78,64.84,,,-99.99,,2013-02-11 10:52:00,
2013-02-11 05:01:00,33.0,26.0,29.72,WNW,285,8.0,18.0,75,64.84,,,-99.99,,2013-02-11 11:01:00,
2013-02-11 05:11:00,33.0,26.0,29.72,WNW,285,8.0,18.0,75,64.84,,,-99.99,,2013-02-11 11:11:00,
2013-02-11 05:22:00,32.0,25.0,29.72,WNW,284,9.0,22.0,75,64.84,,,-99.99,,2013-02-11 11:22:00,
2013-02-11 05:32:00,32.0,26.0,29.72,West,281,7.0,17.0,78,64.84,,,-99.99,,2013-02-11 11:32:00,
2013-02-11 05:42:00,32.0,27.0,29.73,WNW,288,7.0,14.0,80,64.84,,,-99.99,,2013-02-11 11:42:00,
2013-02-11 05:52:00,32.0,27.0,29.73,WNW,288,7.0,14.0,80,64.84,,,-99.99,,2013-02-11 11:52:00,
2013-02-11 06:03:00,32.0,27.0,29.75,WNW,295,7.0,18.0,80,64.84,,,-99.99,,2013-02-11 12:03:00,
2013-02-11 06:12:00,32.0,26.0,29.75,WNW,285,7.0,19.0,79,64.84,,,-99.99,,2013-02-11 12:12:00,
2013-02-11 06:22:00,32.0,26.0,29.75,WNW,285,7.0,19.0,79,64.84,,,-99.99,,2013-02-11 12:22:00,
2013-02-11 06:32:00,30.0,24.0,29.77,WNW,284,7.0,18.0,78,64.84,,,-99.99,,2013-02-11 12:32:00,
2013-02-11 06:42:00,30.0,24.0,29.78,WNW,284,6.0,14.0,78,64.84,,,-99.99,,2013-02-11 12:42:00,
2013-02-11 06:52:00,30.0,24.0,29.78,WNW,284,6.0,14.0,78,64.84,,,-99.99,,2013-02-11 12:52:00,
2013-02-11 07:01:00,30.0,24.0,29.79,WNW,295,7.0,14.0,79,64.84,,,-99.99,,2013-02-11 13:01:00,
2013-02-11 07:11:00,30.0,25.0,29.80,West,274,6.0,12.0,80,64.84,,,-99.99,,2013-02-11 13:11:00,
2013-02-11 07:22:00,30.0,25.0,29.80,West,274,6.0,12.0,80,64.84,,,-99.99,,2013-02-11 13:22:00,
2013-02-11 07:32:00,29.0,24.0,29.81,WNW,287,6.0,12.0,81,64.84,,,-99.99,,2013-02-11 13:32:00,
2013-02-11 07:42:00,29.0,24.0,29.81,WNW,287,6.0,12.0,81,64.84,,,-99.99,,2013-02-11 13:42:00,
2013-02-11 07:52:00,29.0,24.0,29.81,WNW,287,7.0,18.0,81,64.84,,,-99.99,,2013-02-11 13:52:00,
2013-02-11 08:02:00,29.0,24.0,29.82,WNW,294,6.0,16.0,81,64.84,,,-99.99,,2013-02-11 14:02:00,
2013-02-11 08:11:00,29.0,24.0,29.82,WNW,294,6.0,16.0,81,64.84,,,-99.99,,2013-02-11 14:11:00,
2013-02-11 08:21:00,35.0,29.0,29.82,WNW,294,8.0,18.0,78,64.84,,,-99.99,,2013-02-11 14:21:00,
2013-02-11 08:32:00,35.0,28.0,29.83,West,276,7.0,24.0,76,64.84,,,-99.99,,2013-02-11 14:32:00,
2013-02-11 08:42:00,35.0,28.0,29.83,West,267,8.0,17.0,76,64.84,,,-99.99,,2013-02-11 14:42:00,
2013-02-11 08:53:00,35.0,28.0,29.83,West,267,8.0,17.0,76,64.84,,,-99.99,,2013-02-11 14:53:00,
2013-02-11 09:01:00,35.0,29.0,29.84,WNW,291,7.0,24.0,77,64.84,,,-99.99,,2013-02-11 15:01:00,
2013-02-11 09:11:00,35.0,28.0,29.84,WNW,283,8.0,17.0,75,64.84,,,-99.99,,2013-02-11 15:11:00,
2013-02-11 09:22:00,35.0,28.0,29.84,WNW,283,8.0,17.0,75,64.84,,,-99.99,,2013-02-11 15:22:00,
2013-02-11 09:32:00,35.0,27.0,29.84,West,259,9.0,22.0,73,64.84,,,-99.99,,2013-02-11 15:32:00,
2013-02-11 09:42:00,36.0,29.0,29.85,WNW,291,9.0,22.0,74,64.84,,,-99.99,,2013-02-11 15:42:00,
2013-02-11 09:52:00,36.0,29.0,29.85,WNW,291,9.0,22.0,74,64.84,,,-99.99,,2013-02-11 15:52:00,
2013-02-11 10:01:00,36.0,28.0,29.85,West,277,9.0,27.0,73,64.84,,,-99.99,,2013-02-11 16:01:00,
2013-02-11 10:11:00,36.0,28.0,29.86,West,281,11.0,27.0,72,64.84,,,-99.99,,2013-02-11 16:11:00,
2013-02-11 10:22:00,36.0,28.0,29.86,West,281,11.0,27.0,72,64.84,,,-99.99,,2013-02-11 16:22:00,
2013-02-11 10:32:00,36.0,28.0,29.87,West,269,7.0,17.0,73,64.84,,,-99.99,,2013-02-11 16:32:00,
2013-02-11 10:42:00,35.0,27.0,29.88,WNW,283,10.0,24.0,73,64.84,,,-99.99,,2013-02-11 16:42:00,
2013-02-11 10:52:00,35.0,27.0,29.88,WNW,283,10.0,24.0,73,64.84,,,-99.99,,2013-02-11 16:52:00,
2013-02-11 11:01:00,36.0,28.0,29.89,WSW,249,9.0,21.0,71,64.84,,,-99.99,,2013-02-11 17:01:00,
2013-02-11 11:11:00,36.0,28.0,29.89,WSW,249,9.0,21.0,71,64.84,,,-99.99,,2013-02-11 17:11:00,
2013-02-11 11:21:00,36.0,29.0,29.89,West,280,7.0,22.0,75,64.84,,,-99.99,,2013-02-11 17:21:00,
2013-02-11 11:32:00,36.0,29.0,29.89,West,276,8.0,23.0,74,64.84,,,-99.99,,2013-02-11 17:32:00,
2013-02-11 11:42:00,36.0,29.0,29.89,West,276,8.0,23.0,74,64.84,,,-99.99,,2013-02-11 17:42:00,
2013-02-11 11:53:00,36.0,29.0,29.90,WNW,284,9.0,19.0,74,64.84,,,-99.99,,2013-02-11 17:53:00,
2013-02-11 12:01:00,36.0,29.0,29.90,West,280,9.0,21.0,74,64.84,,,-99.99,,2013-02-11 18:01:00,
2013-02-11 12:11:00,36.0,29.0,29.90,West,280,9.0,21.0,74,64.84,,,-99.99,,2013-02-11 18:11:00,
2013-02-11 12:21:00,36.0,29.0,29.89,West,276,8.0,21.0,74,64.84,,,-99.99,,2013-02-11 18:21:00,
2013-02-11 12:32:00,36.0,29.0,29.89,West,266,7.0,17.0,75,64.84,,,-99.99,,2013-02-11 18:32:00,
2013-02-11 12:42:00,36.0,28.0,29.89,WNW,294,10.0,24.0,72,64.84,,,-99.99,,2013-02-11 18:42:00,
2013-02-11 12:53:00,36.0,28.0,29.89,WNW,294,10.0,24.0,72,64.84,,,-99.99,,2013-02-11 18:53:00,
2013-02-11 13:02:00,31.0,23.0,29.89,West,273,10.0,21.0,71,64.84,,,-99.99,,2013-02-11 19:02:00,
2013-02-11 13:11:00,31.0,23.0,29.89,West,280,8.0,18.0,71,64.84,,,-99.99,,2013-02-11 19:11:00,
2013-02-11 13:21:00,31.0,23.0,29.89,West,280,8.0,18.0,71,64.84,,,-99.99,,2013-02-11 19:21:00,
2013-02-11 13:32:00,31.0,23.0,29.89,West,278,9.0,23.0,72,64.84,,,-99.99,,2013-02-11 19:32:00,
2013-02-11 13:41:00,31.0,23.0,29.89,NW,312,7.0,15.0,72,64.84,,,-99.99,,2013-02-11 19:41:00,
2013-02-11 13:51:00,31.0,23.0,29.89,NW,312,7.0,15.0,72,64.84,,,-99.99,,2013-02-11 19:51:00,
2013-02-11 14:01:00,31.0,23.0,29.89,West,267,7.0,18.0,72,64.84,,,-99.99,,2013-02-11 20:01:00,
2013-02-11 14:11:00,32.0,24.0,29.89,WNW,285,6.0,12.0,72,64.84,,,-99.99,,2013-02-11 20:11:00,
2013-02-11 14:21:00,32.0,24.0,29.89,WNW,285,6.0,12.0,72,64.84,,,-99.99,,2013-02-11 20:21:00,
2013-02-11 14:31:00,32.0,24.0,29.90,WNW,300,6.0,16.0,73,64.84,,,-99.99,,2013-02-11 20:31:00,
2013-02-11 14:42:00,33.0,25.0,29.90,WNW,283,7.0,21.0,71,64.84,,,-99.99,,2013-02-11 20:42:00,
2013-02-11 14:52:00,33.0,25.0,29.90,WNW,283,7.0,21.0,71,64.84,,,-99.99,,2013-02-11 20:52:00,
2013-02-11 15:02:00,33.0,24.0,29.91,NW,309,7.0,17.0,70,64.84,,,-99.99,,2013-02-11 21:02:00,
2013-02-11 15:11:00,34.0,24.0,29.91,NW,312,8.0,16.0,67,64.84,,,-99.99,,2013-02-11 21:11:00,
2013-02-11 15:21:00,34.0,24.0,29.91,NW,312,8.0,16.0,67,64.84,,,-99.99,,2013-02-11 21:21:00,
2013-02-11 15:32:00,34.0,25.0,29.92,West,266,7.0,19.0,68,64.84,,,-99.99,,2013-02-11 21:32:00,
2013-02-11 15:42:00,34.0,25.0,29.93,NW,309,6.0,13.0,68,64.84,,,-99.99,,2013-02-11 21:42:00,
2013-02-11 15:52:00,34.0,25.0,29.93,NW,309,6.0,13.0,68,64.84,,,-99.99,,2013-02-11 21:52:00,
2013-02-11 16:01:00,34.0,25.0,29.93,NW,311,6.0,14.0,70,64.84,,,-99.99,,2013-02-11 22:01:00,
2013-02-11 16:11:00,33.0,24.0,29.93,WNW,298,6.0,13.0,70,64.84,,,-99.99,,2013-02-11 22:11:00,
2013-02-11 16:21:00,33.0,24.0,29.93,WNW,298,6.0,13.0,70,64.84,,,-99.99,,2013-02-11 22:21:00,
2013-02-11 16:32:00,33.0,24.0,29.93,WNW,284,6.0,14.0,70,64.84,,,-99.99,,2013-02-11 22:32:00,
2013-02-11 16:42:00,33.0,24.0,29.93,WNW,284,6.0,14.0,70,64.84,,,-99.99,,2013-02-11 22:42:00,
2013-02-11 16:52:00,33.0,23.0,29.93,WNW,285,6.0,14.0,67,64.84,,,-99.99,,2013-02-11 22:52:00,
2013-02-11 17:01:00,33.0,24.0,29.94,NW,319,4.0,11.0,70,64.84,,,-99.99,,2013-02-11 23:01:00,
2013-02-11 17:11:00,33.0,24.0,29.94,NW,319,4.0,11.0,70,64.84,,,-99.99,,2013-02-11 23:11:00,
2013-02-11 17:21:00,33.0,25.0,29.94,WNW,283,4.0,10.0,72,64.84,,,-99.99,,2013-02-11 23:21:00,
2013-02-11 17:32:00,32.0,25.0,29.95,NW,325,2.0,7.0,76,64.84,,,-99.99,,2013-02-11 23:32:00,
2013-02-11 17:52:00,32.0,25.0,29.95,WNW,285,3.0,7.0,76,64.84,,,-99.99,,2013-02-11 23:52:00,
2013-02-11 18:01:00,31.0,25.0,29.96,WNW,291,1.0,5.0,78,64.84,,,-99.99,,2013-02-12 00:01:00,
2013-02-11 18:22:00,31.0,25.0,29.97,WNW,294,0.0,3.0,79,64.84,,,-99.99,,2013-02-12 00:22:00,
2013-02-11 18:32:00,30.0,25.0,29.98,West,281,1.0,6.0,80,64.84,,,-99.99,,2013-02-12 00:32:00,
2013-02-11 18:42:00,30.0,25.0,29.98,West,281,1.0,6.0,80,64.84,,,-99.99,,2013-02-12 00:42:00,
2013-02-11 18:52:00,30.0,25.0,29.98,NNW,328,1.0,3.0,82,64.84,,,-99.99,,2013-02-12 00:52:00,
2013-02-11 19:01:00,30.0,25.0,29.99,NW,304,1.0,4.0,83,64.84,,,-99.99,,2013-02-12 01:01:00,
2013-02-11 19:11:00,30.0,25.0,29.99,NW,304,1.0,4.0,83,64.84,,,-99.99,,2013-02-12 01:11:00,
2013-02-11 19:21:00,29.0,25.0,29.99,NW,321,0.0,2.0,84,64.84,,,-99.99,,2013-02-12 01:21:00,
2013-02-11 19:32:00,29.0,25.0,29.99,NW,326,0.0,5.0,85,64.84,,,-99.99,,2013-02-12 01:32:00,
2013-02-11 19:42:00,29.0,25.0,30.00,WNW,284,1.0,3.0,86,64.84,,,-99.99,,2013-02-12 01:42:00,
2013-02-11 19:52:00,29.0,25.0,30.00,WNW,284,1.0,3.0,86,64.84,,,-99.99,,2013-02-12 01:52:00,
2013-02-11 20:01:00,28.0,25.0,30.00,WNW,298,0.0,3.0,87,64.84,,,-99.99,,2013-02-12 02:01:00,
2013-02-11 20:11:00,28.0,25.0,30.01,North,0,0.0,0.0,89,64.84,,,-99.99,,2013-02-12 02:11:00,
2013-02-11 20:21:00,28.0,25.0,30.01,North,0,0.0,0.0,89,64.84,,,-99.99,,2013-02-12 02:21:00,
2013-02-11 20:31:00,28.0,25.0,30.01,NNW,340,0.0,2.0,88,64.84,,,-99.99,,2013-02-12 02:31:00,
2013-02-11 20:41:00,28.0,25.0,30.01,NNW,340,0.0,2.0,88,64.84,,,-99.99,,2013-02-12 02:41:00,
2013-02-11 20:52:00,28.0,24.0,30.01,West,270,2.0,5.0,86,64.84,,,-99.99,,2013-02-12 02:52:00,
2013-02-11 21:02:00,28.0,24.0,30.01,WNW,295,0.0,3.0,86,64.84,,,-99.99,,2013-02-12 03:02:00,
2013-02-11 21:11:00,28.0,25.0,30.01,North,0,0.0,0.0,88,64.84,,,-99.99,,2013-02-12 03:11:00,
2013-02-11 21:21:00,28.0,25.0,30.01,North,0,0.0,0.0,88,64.84,,,-99.99,,2013-02-12 03:21:00,
2013-02-11 21:31:00,27.0,24.0,30.02,North,0,0.0,0.0,89,64.84,,,-99.99,,2013-02-12 03:31:00,
2013-02-11 21:41:00,27.0,24.0,30.01,North,357,0.0,5.0,90,64.84,,,-99.99,,2013-02-12 03:41:00,
2013-02-11 21:52:00,27.0,24.0,30.01,North,357,0.0,5.0,90,64.84,,,-99.99,,2013-02-12 03:52:00,
2013-02-11 22:01:00,27.0,24.0,30.02,NNW,346,1.0,3.0,88,64.84,,,-99.99,,2013-02-12 04:01:00,
2013-02-11 22:11:00,27.0,24.0,30.02,NNW,346,1.0,3.0,88,64.84,,,-99.99,,2013-02-12 04:11:00,
2013-02-11 22:21:00,27.0,24.0,30.02,North,8,0.0,4.0,89,64.84,,,-99.99,,2013-02-12 04:21:00,
2013-02-11 22:31:00,26.0,24.0,30.02,North,359,1.0,7.0,91,64.84,,,-99.99,,2013-02-12 04:31:00,
2013-02-11 22:41:00,26.0,24.0,30.02,North,359,1.0,7.0,91,64.84,,,-99.99,,2013-02-12 04:41:00,
2013-02-11 22:52:00,26.0,23.0,30.03,North,354,2.0,8.0,88,64.84,,,-99.99,,2013-02-12 04:52:00,
2013-02-11 23:01:00,26.0,23.0,30.03,NNW,342,2.0,8.0,88,64.84,,,-99.99,,2013-02-12 05:01:00,
2013-02-11 23:11:00,26.0,23.0,30.03,NW,314,1.0,5.0,88,64.84,,,-99.99,,2013-02-12 05:11:00,
2013-02-11 23:21:00,26.0,23.0,30.03,NW,314,1.0,5.0,88,64.84,,,-99.99,,2013-02-12 05:21:00,
2013-02-11 23:31:00,26.0,23.0,30.03,NNW,335,1.0,5.0,88,64.84,,,-99.99,,2013-02-12 05:31:00,
2013-02-11 23:42:00,26.0,23.0,30.03,NNW,335,1.0,5.0,88,64.84,,,-99.99,,2013-02-12 05:42:00,
2013-02-11 23:52:00,26.0,23.0,30.04,NNW,332,1.0,5.0,90,64.84,,,-99.99,,2013-02-12 05:52:00,